Port Heiden, AK

2:24 AM AKST on November 24, 2017 (GMT -0900)
Port Heiden

Weather History for PAPH - November, 2012

Change the Weather History Date:

Thursday, November 15, 2012

  Actual Average Record
Temperature  
Mean Temperature 30 °F -  
Max Temperature 35 °F 37 °F 51 °F (1998)
Min Temperature 23 °F 28 °F 6 °F (2007)
Degree Days  
Heating Degree Days 36    
Moisture  
Dew Point 20 °F    
Average Humidity 72    
Maximum Humidity 87    
Minimum Humidity 59    
Precipitation  
Precipitation 0.08 in - - ()
Sea Level Pressure  
Sea Level Pressure 29.64 in    
Wind  
Wind Speed 12 mph (NNW)    
Max Wind Speed 25 mph    
Max Gust Speed 36 mph    
Visibility 6 miles    
Events      
Averages and records for this station are not official NWS values.
T = Trace of Precipitation, MM = Missing Value Source: NWS Daily Summary

Daily Weather History Graph

Daily Weather History Graph

Search for Another Location

Airport or City:

Trip Planner

Search our weather history database for the weather conditions in past years. The results will help you decide how hot, cold, wet, or windy it might be!

Date:

Astronomy

Nov. 15, 2012 Rise Set
Actual Time 9:17 AM AKST 5:20 PM AKST
Civil Twilight 8:33 AM AKST 6:04 PM AKST
Nautical Twilight 7:46 AM AKST 6:51 PM AKST
Astronomical Twilight 7:01 AM AKST 7:36 PM AKST
Moon 11:40 AM AKST (11/15) 7:09 PM AKST (11/15)
Length of Visible Light 9h 30m
Length of Day
8h 03m
Waxing Crescent, 6% of the Moon is Illuminated
Nov 15
Waxing Crescent
Nov 20
First Quarter
Nov 28
Full
Dec 6
Last Quarter
Dec 12
New

Hourly Weather History & Observations

Time (AKST) Temp. Windchill Dew Point Humidity Pressure Visibility Wind Dir Wind Speed Gust Speed Precip Events Conditions
12:16 AM - - - N/A% 29.40 in 5.0 mi South 5.8 mph - N/A   Overcast
12:36 AM - - - N/A% 29.41 in 9.0 mi South 4.6 mph - N/A   Overcast
12:56 AM - - - N/A% 29.42 in 10.0 mi South 3.5 mph - N/A   Overcast
1:16 AM - - - N/A% 29.43 in 10.0 mi Calm Calm - N/A   Overcast
1:36 AM - - - N/A% 29.44 in 10.0 mi Calm Calm - N/A   Overcast
1:56 AM - - - N/A% 29.45 in 10.0 mi South 3.5 mph - N/A   Overcast
2:16 AM - - - N/A% 29.46 in 3.0 mi SSW 4.6 mph - N/A   Overcast
2:36 AM - - - N/A% 29.47 in 3.0 mi Calm Calm - N/A   Overcast
2:56 AM - - - N/A% 29.47 in 4.0 mi NW 4.6 mph - N/A   Overcast
3:16 AM - - - N/A% 29.49 in 9.0 mi NW 6.9 mph - N/A   Overcast
3:36 AM - - - N/A% 29.50 in 3.0 mi North 5.8 mph - N/A   Overcast
3:56 AM - - - N/A% 29.51 in 2.5 mi NNW 4.6 mph - N/A   Overcast
4:16 AM - - - N/A% 29.52 in 2.0 mi North 4.6 mph - N/A   Overcast
4:36 AM - - - N/A% 29.52 in 0.8 mi NNW 3.5 mph - N/A   Overcast
4:56 AM 35.6 °F 29.9 °F 32.0 °F 87% 29.54 in 0.8 mi NNW 6.9 mph - N/A   Overcast
5:16 AM - - - N/A% 29.55 in 8.0 mi North 5.8 mph - N/A   Overcast
5:36 AM - - - N/A% 29.54 in 8.0 mi North 4.6 mph - N/A   Overcast
5:56 AM - - - N/A% 29.56 in 9.0 mi NNW 4.6 mph - N/A   Overcast
6:16 AM - - - N/A% 29.56 in 3.0 mi WNW 10.4 mph - N/A   Overcast
6:36 AM - - - N/A% 29.56 in 1.0 mi WNW 9.2 mph - N/A   Overcast
6:56 AM - - - N/A% 29.56 in 9.0 mi WNW 10.4 mph - N/A   Overcast
7:16 AM - - - N/A% 29.57 in 3.0 mi WNW 15.0 mph - N/A   Overcast
7:36 AM - - - N/A% 29.57 in 10.0 mi West 19.6 mph - N/A   Overcast
7:56 AM - - - N/A% 29.57 in 10.0 mi WNW 23.0 mph 26.5 mph N/A   Overcast
8:16 AM - - - N/A% 29.57 in 7.0 mi WNW 20.7 mph 27.6 mph N/A   Overcast
8:36 AM - - - N/A% 29.57 in 5.0 mi West 20.7 mph 24.2 mph N/A   Overcast
8:56 AM - - - N/A% 29.57 in 3.0 mi West 24.2 mph 28.8 mph N/A   Overcast
9:16 AM - - - N/A% 29.58 in 3.0 mi WNW 24.2 mph 31.1 mph N/A   Overcast
9:36 AM - - - N/A% 29.58 in 10.0 mi West 23.0 mph 33.4 mph N/A   Overcast
9:56 AM - - - N/A% 29.59 in 3.0 mi WNW 24.2 mph 33.4 mph N/A   Overcast
10:16 AM 32.0 °F 19.2 °F 23.0 °F 69% 29.61 in 9.0 mi WNW 23.0 mph 32.2 mph N/A   Overcast
10:36 AM 30.2 °F 16.2 °F 23.0 °F 75% 29.62 in 9.0 mi West 25.3 mph 32.2 mph N/A   Overcast
10:56 AM - - - N/A% 29.62 in 10.0 mi WNW 20.7 mph 29.9 mph N/A   Overcast
11:16 AM - - - N/A% 29.63 in 9.0 mi West 24.2 mph 29.9 mph N/A   Overcast
11:36 AM - - - N/A% 29.63 in 10.0 mi WNW 24.2 mph 27.6 mph N/A   Overcast
11:56 AM - - - N/A% 29.63 in 9.0 mi WNW 25.3 mph 33.4 mph N/A   Overcast
12:16 PM - - - N/A% 29.63 in 10.0 mi West 21.9 mph 28.8 mph N/A   Overcast
12:36 PM - - - N/A% 29.62 in 9.0 mi WNW 19.6 mph 29.9 mph N/A   Overcast
12:56 PM - - - N/A% 29.62 in 9.0 mi WNW 18.4 mph 28.8 mph N/A   Overcast
1:16 PM - - - N/A% 29.61 in 7.0 mi WNW 25.3 mph 31.1 mph N/A   Overcast
1:36 PM - - - N/A% 29.60 in 5.0 mi NW 21.9 mph 28.8 mph N/A   Overcast
1:56 PM - - - N/A% 29.60 in 3.0 mi NW 21.9 mph 27.6 mph N/A   Overcast
2:16 PM - - - N/A% 29.62 in 0.5 mi North 10.4 mph 35.7 mph N/A   Overcast
2:36 PM 28.4 °F 17.0 °F 21.2 °F 74% 29.62 in 1.5 mi NNE 15.0 mph - N/A   Overcast
2:56 PM 26.6 °F 13.1 °F 15.8 °F 64% 29.63 in 1.8 mi NNE 19.6 mph 25.3 mph N/A   Overcast
3:16 PM 26.6 °F 12.7 °F 17.6 °F 69% 29.64 in 1.2 mi NNE 20.7 mph 25.3 mph N/A   Overcast
3:36 PM - - - N/A% 29.65 in 1.0 mi North 19.6 mph 25.3 mph N/A   Overcast
3:56 PM - - - N/A% 29.66 in 3.0 mi North 20.7 mph - N/A   Overcast
4:16 PM - - - N/A% 29.67 in 1.8 mi North 19.6 mph 24.2 mph N/A   Overcast
4:36 PM - - - N/A% 29.67 in 1.0 mi North 19.6 mph - N/A   Overcast
4:56 PM - - - N/A% 29.69 in 2.0 mi NNE 17.3 mph 24.2 mph N/A   Overcast
5:16 PM - - - N/A% 29.70 in 1.2 mi NNE 19.6 mph - N/A   Overcast
5:36 PM 24.8 °F 11.5 °F 19.4 °F 80% 29.72 in 1.2 mi NNE 17.3 mph - N/A   Overcast
5:56 PM - - - N/A% 29.72 in 4.0 mi NNE 16.1 mph - N/A   Overcast
6:16 PM - - - N/A% 29.74 in 7.0 mi NNE 19.6 mph 25.3 mph N/A   Overcast
6:36 PM - - - N/A% 29.75 in 4.0 mi NNE 18.4 mph - N/A   Overcast
6:56 PM - - - N/A% 29.76 in 4.0 mi NNE 18.4 mph 21.9 mph N/A   Overcast
7:16 PM - - - N/A% 29.78 in 8.0 mi NNE 18.4 mph - N/A   Overcast
7:36 PM 24.8 °F 10.3 °F 12.2 °F 59% 29.79 in 3.0 mi NNE 20.7 mph 26.5 mph N/A   Overcast
7:56 PM - - - N/A% 29.80 in 5.0 mi NNE 19.6 mph - N/A   Overcast
8:16 PM - - - N/A% 29.81 in 4.0 mi NNE 20.7 mph - N/A   Overcast
8:36 PM - - - N/A% 29.82 in 8.0 mi NNE 19.6 mph - N/A   Overcast
8:56 PM - - - N/A% 29.83 in 9.0 mi NNE 20.7 mph - N/A   Overcast
9:16 PM - - - N/A% 29.84 in 8.0 mi NNE 20.7 mph 27.6 mph 0.02 in   Overcast
9:36 PM - - - N/A% 29.85 in 7.0 mi NNE 17.3 mph - 0.03 in   Overcast
9:56 PM 23.0 °F 10.6 °F 14.0 °F 68% 29.87 in 8.0 mi NNE 13.8 mph - 0.03 in   Overcast
10:16 PM - - - N/A% 29.87 in 6.0 mi NNE 17.3 mph 23.0 mph N/A   Overcast
10:36 PM - - - N/A% 29.87 in 5.0 mi NNE 15.0 mph - N/A   Overcast
10:56 PM - - - N/A% 29.88 in 5.0 mi NNE 11.5 mph - N/A   Overcast
11:16 PM - - - N/A% 29.89 in 5.0 mi NNE 17.3 mph 21.9 mph N/A   Overcast
11:36 PM - - - N/A% 29.90 in 8.0 mi NNE 16.1 mph - N/A   Overcast
11:56 PM - - - N/A% 29.91 in 10.0 mi NNE 13.8 mph - N/A   Overcast